Time,TemperatureF,DewpointF,PressureIn,WindDirection,WindDirectionDegrees,WindSpeedMPH,WindSpeedGustMPH,Humidity,HourlyPrecipIn,Conditions,Clouds,dailyrainin,SoftwareType,DateUTC
2013-09-28 00:33:00,54.3,48.9,30.68,SE,135,0.0,0.0,82,0.00,,,0.00,WUHU21623XXSP,2013-09-28 04:33:00,
2013-09-28 01:33:00,53.4,48.7,30.69,SE,135,0.0,0.0,84,0.00,,,0.00,WUHU21623XXSP,2013-09-28 05:33:00,
2013-09-28 02:33:00,52.3,47.6,30.68,SE,135,0.0,0.0,84,0.00,,,0.00,WUHU21623XXSP,2013-09-28 06:33:00,
2013-09-28 03:33:00,51.1,46.7,30.68,SE,135,0.0,0.0,85,0.00,,,0.00,WUHU21623XXSP,2013-09-28 07:33:00,
2013-09-28 04:33:00,49.8,45.5,30.68,SE,135,0.0,0.0,85,0.00,,,0.00,WUHU21623XXSP,2013-09-28 08:33:00,
2013-09-28 05:33:00,49.8,45.8,30.68,SE,135,0.0,0.0,86,0.00,,,0.00,WUHU21623XXSP,2013-09-28 09:33:00,
2013-09-28 06:33:00,50.2,46.5,30.68,SE,135,0.0,0.0,87,0.00,,,0.00,WUHU21623XXSP,2013-09-28 10:33:00,
2013-09-28 07:33:00,53.8,50.6,30.69,ENE,68,0.0,0.0,89,0.00,,,0.00,WUHU21623XXSP,2013-09-28 11:33:00,
2013-09-28 08:33:00,55.4,52.5,30.68,NW,315,0.0,0.0,90,0.00,,,0.00,WUHU21623XXSP,2013-09-28 12:33:00,
2013-09-28 09:33:00,57.4,54.8,30.68,North,0,0.0,0.0,91,0.00,,,0.00,WUHU21623XXSP,2013-09-28 13:33:00,
2013-09-28 10:33:00,60.6,57.3,30.68,ESE,113,1.8,1.8,89,0.00,,,0.00,WUHU21623XXSP,2013-09-28 14:33:00,
2013-09-28 11:33:00,64.6,59.4,30.66,North,0,0.0,0.0,83,0.00,,,0.00,WUHU21623XXSP,2013-09-28 15:33:00,
2013-09-28 12:33:00,69.6,59.9,30.63,North,0,0.0,0.0,71,0.00,,,0.00,WUHU21623XXSP,2013-09-28 16:33:00,
2013-09-28 13:33:00,73.2,59.1,30.60,WSW,248,0.0,0.0,61,0.00,,,0.00,WUHU21623XXSP,2013-09-28 17:33:00,
2013-09-28 14:33:00,75.6,59.0,30.56,NW,315,0.0,0.0,56,0.00,,,0.00,WUHU21623XXSP,2013-09-28 18:33:00,
2013-09-28 15:33:00,77.2,58.3,30.53,NNE,23,0.0,0.0,52,0.00,,,0.00,WUHU21623XXSP,2013-09-28 19:33:00,
2013-09-28 16:33:00,77.4,57.4,30.50,WSW,248,0.0,0.0,50,0.00,,,0.00,WUHU21623XXSP,2013-09-28 20:33:00,
2013-09-28 17:33:00,75.6,55.2,30.50,SW,225,3.8,3.8,49,0.00,,,0.00,WUHU21623XXSP,2013-09-28 21:33:00,
2013-09-28 18:33:00,73.0,55.0,30.49,North,0,0.0,0.0,53,0.00,,,0.00,WUHU21623XXSP,2013-09-28 22:33:00,
2013-09-28 19:33:00,70.0,54.7,30.49,North,0,0.0,0.0,58,0.00,,,0.00,WUHU21623XXSP,2013-09-28 23:33:00,
2013-09-28 20:33:00,67.3,54.4,30.49,NNW,338,0.0,0.0,63,0.00,,,0.00,WUHU21623XXSP,2013-09-29 00:33:00,
2013-09-28 21:33:00,66.7,54.3,30.48,NNE,23,0.0,0.0,64,0.00,,,0.00,WUHU21623XXSP,2013-09-29 01:33:00,
2013-09-28 22:33:00,65.1,53.6,30.48,SSW,203,0.0,0.0,66,0.00,,,0.00,WUHU21623XXSP,2013-09-29 02:33:00,
2013-09-28 23:33:00,63.1,52.9,30.45,WNW,293,0.0,0.0,69,0.00,,,0.00,WUHU21623XXSP,2013-09-29 03:33:00,